Date,TemperatureHighF,TemperatureAvgF,TemperatureLowF,DewpointHighF,DewpointAvgF,DewpointLowF,HumidityHigh,HumidityAvg,HumidityLow,PressureMaxIn,PressureMinIn,WindSpeedMaxMPH,WindSpeedAvgMPH,GustSpeedMaxMPH,PrecipitationSumIn
2013-4-11,77.7,76.6,75.7,75.0,74.6,74.2,97,93,89,29.86,29.84,15,10,21,0.00
2013-4-12,87.1,79.0,73.2,79.0,75.6,73.0,100,90,69,29.95,29.86,13,8,16,0.00
2013-4-13,96.1,82.2,70.3,75.8,69.8,65.8,100,68,43,29.98,29.85,14,4,14,0.00
2013-4-14,89.0,80.8,70.1,77.7,74.2,69.8,100,82,55,29.97,29.84,15,8,18,0.00
2013-4-15,94.3,81.3,66.0,75.3,70.3,64.5,100,72,46,30.06,29.92,13,5,13,0.01
2013-4-16,100.4,82.3,68.5,76.3,71.2,64.3,99,73,32,30.12,30.01,14,6,19,0.00
2013-4-17,97.1,81.4,69.2,72.5,67.8,61.5,100,67,32,30.12,29.99,10,6,13,0.00
2013-4-18,92.8,81.2,70.7,76.9,72.0,66.5,99,76,45,30.05,29.93,12,7,16,0.01
2013-4-19,90.1,81.0,70.7,77.4,74.6,70.4,100,83,59,30.02,29.93,13,8,18,0.00
2013-4-20,90.8,80.3,68.7,79.6,72.5,68.3,100,79,52,30.12,29.96,11,6,18,0.07
2013-4-21,93.9,74.9,62.9,72.9,69.0,62.7,100,85,43,30.12,29.97,13,6,24,1.15
2013-4-22,90.5,76.1,66.4,77.2,70.4,66.1,100,84,53,30.07,29.93,10,4,13,1.03
2013-4-23,94.3,76.9,65.3,71.8,66.4,61.9,100,74,36,30.09,29.97,15,8,15,0.00
2013-4-24,94.3,77.7,62.9,69.2,65.1,58.1,99,69,31,30.14,30.04,9,5,14,0.00
2013-4-25,95.3,79.5,66.7,71.6,65.6,54.8,100,68,27,30.19,30.08,12,5,14,0.00
2013-4-26,92.1,79.8,65.8,67.0,63.9,61.0,94,61,38,30.23,30.12,11,6,17,0.00
2013-4-27,91.9,79.7,66.7,70.2,64.2,59.1,100,63,35,30.20,30.05,13,7,18,0.00
2013-4-28,90.5,78.5,67.1,72.7,66.2,61.1,96,69,38,30.10,29.95,12,7,17,0.00
2013-4-29,75.5,73.8,71.2,70.6,69.5,68.6,95,86,81,29.95,29.92,8,5,9,0.00
2013-4-30,90.3,78.0,68.2,75.8,71.7,67.9,100,83,56,29.98,29.89,10,5,14,0.00
2013-5-1,79.3,70.8,65.8,76.5,70.3,65.6,100,98,89,29.99,29.79,20,7,27,0.46
2013-5-2,84.4,70.1,66.7,71.2,68.4,66.5,100,95,60,29.94,29.80,9,3,11,0.00
2013-5-3,86.9,76.9,62.9,73.6,69.2,62.7,100,79,53,29.84,29.70,12,5,17,0.00
2013-5-4,80.8,74.3,68.2,71.9,68.8,66.1,100,84,67,29.82,29.70,22,9,23,0.00
2013-5-5,82.4,72.8,63.1,69.3,56.2,44.5,99,60,28,29.96,29.79,14,8,20,0.00
2013-5-6,81.3,72.7,61.5,67.4,63.0,58.8,100,73,50,30.01,29.93,12,6,17,0.00
2013-5-7,79.5,75.2,62.9,62.4,60.5,58.1,96,61,50,30.07,30.01,13,8,21,0.00
2013-5-8,84.5,75.0,62.0,66.2,60.8,44.4,100,66,26,30.14,30.05,10,4,14,0.00
2013-5-9,94.3,78.7,62.6,68.8,58.9,39.3,99,59,15,30.16,30.06,8,4,9,0.00
2013-5-10,91.6,80.4,65.5,76.1,70.8,65.2,100,76,47,30.13,29.99,11,5,15,0.00
2013-5-11,88.9,81.1,71.2,78.2,75.0,71.0,100,83,60,30.06,29.98,13,6,17,0.00
2013-5-12,87.8,81.2,72.8,80.7,74.8,70.5,99,82,63,30.05,29.92,12,6,19,0.00
2013-5-13,87.6,78.7,68.9,74.7,68.3,53.2,99,73,51,30.11,30.00,10,6,13,0.00
2013-5-14,92.8,77.4,62.2,60.3,54.6,40.9,90,51,19,30.19,30.08,12,8,17,0.00
2013-5-15,91.0,78.7,63.7,64.4,59.6,53.9,96,56,29,30.19,30.06,11,6,14,0.00
2013-5-16,95.0,80.2,65.8,67.8,60.2,49.8,95,56,23,30.11,29.98,8,5,14,0.00
2013-5-17,98.6,81.9,67.1,71.4,64.8,54.1,100,62,24,30.08,30.01,9,4,13,0.00
2013-5-18,93.5,82.9,69.2,74.7,68.7,62.8,100,66,39,30.10,30.00,9,4,14,0.00
2013-5-19,98.6,81.9,73.0,74.5,71.7,65.7,100,75,37,30.09,29.96,12,4,15,0.00
2013-5-20,99.3,80.3,70.7,77.1,71.6,60.0,100,79,28,30.06,29.95,22,6,26,0.00
2013-5-21,95.3,79.3,67.8,75.3,70.9,66.9,100,79,43,30.01,29.87,12,5,15,0.00
2013-5-22,91.2,81.3,69.1,77.0,72.1,68.8,99,76,51,29.95,29.87,12,5,14,0.00
2013-5-23,89.9,81.1,71.8,76.2,71.3,63.1,100,75,45,30.01,29.90,9,5,12,0.00
2013-5-24,96.4,82.4,70.5,77.9,69.5,59.6,100,68,37,30.06,29.91,14,5,17,0.00
2013-5-25,97.0,84.2,69.8,79.9,69.2,61.9,99,65,33,30.02,29.91,14,8,19,0.01
2013-5-26,94.1,81.4,69.8,70.7,64.0,52.4,97,59,27,30.06,29.94,14,8,16,0.00
2013-5-27,92.4,80.3,69.0,73.1,68.2,62.8,95,69,43,30.02,29.89,14,8,19,0.00
2013-5-28,88.1,79.1,71.4,76.6,73.5,70.7,100,84,58,29.98,29.87,19,10,28,0.00
2013-5-29,88.5,78.2,71.4,76.6,72.6,69.5,100,84,56,29.95,29.86,23,11,32,0.00
2013-5-30,89.4,75.9,71.0,76.9,72.9,70.7,100,91,60,29.92,29.82,21,10,21,0.00
2013-5-31,88.3,77.2,72.1,78.5,74.3,71.8,100,91,63,29.92,29.84,17,8,17,0.00
2013-6-1,93.2,80.3,72.6,78.8,75.0,68.8,100,86,54,29.89,29.81,14,5,17,0.50
2013-6-2,90.0,81.7,71.6,79.4,76.0,71.4,100,84,60,29.87,29.77,14,6,18,0.00
2013-6-3,85.1,77.9,74.5,78.5,75.3,73.4,100,92,78,29.87,29.78,12,5,12,0.00
2013-6-4,86.9,77.8,72.2,78.2,75.5,71.9,100,93,72,29.91,29.82,16,6,21,0.08
2013-6-5,79.3,76.8,75.6,78.9,76.4,75.1,100,98,91,29.88,29.73,13,8,17,0.22
2013-6-6,80.3,75.0,69.1,80.0,74.5,68.8,100,98,88,29.74,29.62,22,12,28,2.34
2013-6-7,85.1,78.9,75.0,79.2,75.0,69.7,100,88,61,29.85,29.68,11,5,16,0.00
2013-6-8,91.4,83.5,75.4,81.8,78.6,75.0,100,86,63,29.97,29.83,14,6,14,0.00
2013-6-9,95.2,84.1,74.5,79.7,76.2,70.7,100,79,48,29.97,29.86,12,6,23,0.27
2013-6-10,95.7,83.7,75.8,81.0,76.8,70.7,100,82,48,29.95,29.86,12,6,17,0.02
2013-6-11,96.3,82.4,70.7,81.4,76.2,70.5,100,84,48,29.96,29.84,24,5,30,0.37
2013-6-12,96.8,80.5,71.4,81.4,75.3,68.6,100,86,46,29.97,29.87,25,4,31,0.19
2013-6-13,94.8,81.9,70.7,80.0,75.3,70.5,99,82,49,29.93,29.80,10,4,14,0.00
2013-6-14,89.8,83.7,76.1,80.0,75.3,70.7,100,77,55,29.85,29.75,10,6,14,0.00
2013-6-15,96.4,85.3,75.4,81.0,76.1,72.6,100,76,50,29.91,29.80,9,4,12,0.00
2013-6-16,96.6,84.3,75.6,80.3,77.1,73.1,100,81,48,29.96,29.88,15,4,21,0.89
2013-6-17,100.4,87.3,75.6,79.7,76.0,68.5,100,72,39,29.94,29.85,10,4,13,0.00
2013-6-18,95.0,86.4,74.8,80.9,77.3,73.4,99,76,51,29.94,29.83,11,5,14,0.18
2013-6-19,95.0,84.8,74.8,80.1,75.5,69.9,100,76,47,29.93,29.85,13,5,18,0.06
2013-6-20,95.4,81.7,72.7,80.3,76.5,72.2,100,85,58,29.98,29.89,14,4,19,0.38
2013-6-21,92.5,81.0,73.2,80.0,74.9,69.5,100,83,54,29.99,29.90,17,4,23,0.31
2013-6-22,97.3,86.1,74.1,79.2,72.6,63.0,100,68,33,29.98,29.88,9,4,12,0.00
2013-6-23,97.0,83.0,74.8,78.7,75.6,68.7,100,81,42,29.99,29.92,13,4,17,0.04
2013-6-24,96.1,85.1,74.8,78.2,74.8,67.8,100,74,40,30.04,29.92,13,6,16,0.00
2013-6-25,97.5,84.3,75.2,78.2,74.3,67.9,100,75,41,30.01,29.88,14,6,24,0.00
2013-6-26,92.1,80.9,75.2,79.8,76.2,72.7,100,87,58,29.95,29.87,17,6,21,0.00
2013-6-27,95.9,81.5,71.3,80.0,75.3,71.0,100,84,49,29.93,29.81,16,4,21,0.48
2013-6-28,91.4,84.4,75.6,79.7,76.4,73.2,99,78,60,29.86,29.73,12,5,17,0.00
2013-6-29,91.2,84.1,76.7,80.3,77.0,72.9,100,80,57,29.77,29.69,13,7,17,0.01
2013-6-30,88.9,82.2,74.7,80.8,77.9,74.4,100,88,70,29.79,29.70,18,10,22,0.83
2013-7-1,87.6,76.5,70.5,83.9,75.5,70.3,100,97,77,29.88,29.76,26,7,34,3.86
2013-7-2,90.2,78.4,70.3,86.2,76.2,69.9,100,93,71,29.96,29.83,19,5,27,0.87
2013-7-3,91.1,78.3,72.5,80.2,76.2,72.3,100,94,66,29.99,29.91,18,5,21,0.69
2013-7-4,92.3,80.0,72.0,80.3,76.2,71.7,100,89,60,30.01,29.92,14,6,18,0.06
2013-7-5,95.0,81.1,74.1,80.3,76.6,73.8,100,88,55,29.99,29.90,19,7,27,0.22
2013-7-6,95.7,85.4,75.6,80.1,76.0,70.9,99,76,46,29.97,29.86,14,8,16,0.02
2013-7-7,95.0,84.8,75.4,79.8,75.7,71.1,100,76,49,29.98,29.87,16,8,25,0.01
2013-7-8,95.4,83.2,75.4,79.4,74.7,68.8,100,78,43,30.01,29.94,15,6,21,0.02
2013-7-9,94.5,81.7,73.6,80.0,75.9,69.8,100,84,48,30.03,29.91,17,5,24,0.07
2013-7-10,92.1,81.5,73.8,78.5,75.4,68.9,100,83,49,29.96,29.84,11,4,14,0.37
2013-7-11,91.6,83.4,74.8,79.8,76.0,71.3,99,80,56,29.91,29.80,10,4,15,0.00
2013-7-12,91.1,82.7,75.4,79.8,76.7,73.6,100,83,59,29.85,29.76,14,4,14,0.05
2013-7-13,89.8,80.8,73.9,80.2,76.8,72.9,100,88,69,29.86,29.78,14,6,18,0.08
2013-7-14,85.6,79.3,74.8,80.0,77.8,74.5,99,95,76,29.95,29.84,14,6,14,0.06
2013-7-15,96.6,81.3,73.0,79.4,75.5,70.8,99,84,44,29.95,29.86,18,5,19,0.08
2013-7-16,90.9,80.6,74.1,79.9,76.0,72.5,99,87,58,30.00,29.91,27,8,31,0.27
2013-7-17,88.7,81.1,74.3,80.2,75.9,72.3,99,85,63,30.00,29.89,23,8,28,0.04
2013-7-18,84.0,76.2,72.1,79.8,75.2,71.9,99,97,84,29.99,29.91,14,4,14,0.85
2013-7-19,95.4,81.0,71.8,82.8,76.9,71.5,99,89,55,30.00,29.90,17,5,18,0.45
2013-7-20,94.6,81.2,74.8,84.0,77.3,73.7,99,89,62,29.98,29.88,21,5,21,0.00
2013-7-21,93.6,84.3,76.8,84.6,80.3,75.3,99,88,72,30.00,29.91,12,4,12,0.02
2013-7-22,93.0,84.9,77.5,82.8,79.1,76.8,99,84,61,30.01,29.93,14,5,14,0.00
2013-7-23,93.0,86.8,78.8,83.4,78.9,75.0,99,79,58,29.97,29.85,11,5,13,0.00
2013-7-24,90.3,85.0,77.5,79.6,76.6,70.6,99,77,53,29.88,29.79,16,7,16,0.00
2013-7-25,90.1,85.4,80.1,80.4,78.6,76.4,95,80,68,29.90,29.78,17,8,17,0.00
2013-7-26,93.6,85.6,71.8,83.6,78.4,71.3,99,80,58,29.90,29.81,18,6,21,0.33
2013-7-27,94.8,86.7,77.2,85.6,78.5,74.2,99,78,52,29.87,29.79,13,4,16,0.40
2013-7-28,95.7,88.2,77.9,82.6,75.8,66.6,99,69,43,29.92,29.81,16,5,16,0.00
2013-7-29,100.8,84.5,76.5,80.7,76.9,71.1,99,81,41,30.01,29.88,19,4,23,0.57
2013-7-30,96.4,83.3,77.0,83.9,79.3,76.4,99,89,55,30.03,29.93,19,4,19,0.11
2013-7-31,98.2,85.0,77.7,83.6,78.3,74.2,99,82,49,29.99,29.86,17,4,17,0.00
2013-8-1,99.5,84.5,72.5,81.7,76.0,69.5,99,80,39,29.91,29.78,29,5,29,0.57
2013-8-2,91.8,82.5,75.7,81.5,78.9,75.4,99,89,69,29.91,29.80,11,4,11,0.11
2013-8-3,96.1,83.8,76.1,82.6,79.2,75.7,99,87,58,29.96,29.88,14,4,14,0.37
2013-8-4,95.9,87.1,78.6,85.9,80.3,74.9,99,81,58,29.94,29.85,14,5,14,0.00
2013-8-5,93.6,87.0,79.9,84.2,80.4,76.9,99,82,60,29.89,29.78,14,5,16,0.00
2013-8-6,100.2,85.6,79.3,85.5,79.7,69.6,99,84,41,29.84,29.74,15,3,15,0.04
2013-8-7,96.4,84.7,77.5,82.4,79.2,76.9,99,86,56,29.81,29.73,22,4,23,0.04
2013-8-8,100.0,84.5,76.3,82.7,78.0,71.9,99,83,42,29.85,29.76,26,6,28,0.66
2013-8-9,98.1,81.7,72.1,81.9,76.9,71.9,99,88,46,29.89,29.79,24,6,24,0.37
2013-8-10,99.1,88.1,76.3,82.3,77.2,72.0,99,73,44,29.95,29.85,14,7,14,0.00
2013-8-11,102.4,90.6,77.7,82.1,77.5,71.0,99,69,39,29.98,29.87,17,7,17,0.00
2013-8-12,100.9,88.5,77.2,81.0,75.2,66.2,99,69,33,29.96,29.84,14,6,14,0.00
2013-8-13,103.1,87.3,72.3,82.6,78.4,72.1,99,77,41,29.89,29.77,21,5,21,0.78
2013-8-14,97.2,87.8,75.7,81.9,77.7,73.2,99,74,50,29.87,29.75,11,5,13,0.01
2013-8-15,90.5,82.1,77.4,83.0,79.2,76.4,99,91,73,29.90,29.79,11,3,11,0.05
2013-8-16,102.6,88.5,79.2,82.6,78.6,71.4,99,75,39,29.88,29.78,17,4,17,0.00
2013-8-17,100.4,85.4,77.2,84.3,79.7,73.8,99,85,46,29.91,29.81,29,5,29,0.05
2013-8-18,99.0,83.9,74.5,83.1,78.8,74.2,99,86,51,29.93,29.81,16,6,16,0.97
2013-8-19,99.5,82.8,74.3,83.1,78.2,73.9,99,88,48,29.91,29.79,17,6,17,0.51
2013-8-20,97.2,83.9,75.0,82.5,77.9,74.7,99,83,50,29.90,29.82,21,6,21,0.00
2013-8-21,96.3,85.3,78.1,83.8,79.5,76.2,99,84,56,29.92,29.81,23,7,24,0.07
2013-8-22,104.0,84.3,74.3,83.4,77.9,73.3,99,84,41,29.90,29.78,23,6,23,0.51
2013-8-23,96.3,83.3,74.8,84.0,79.0,74.6,99,89,56,29.85,29.77,20,4,20,0.26
2013-8-24,99.7,84.9,75.6,83.8,77.8,72.3,99,83,45,29.97,29.81,17,5,17,0.47
2013-8-25,97.2,83.5,75.7,81.7,78.1,74.4,99,86,55,29.98,29.85,14,6,15,0.09
2013-8-26,98.8,80.9,73.6,82.9,77.0,73.3,99,90,48,29.95,29.83,24,6,27,0.78
2013-8-27,95.5,82.1,73.6,81.0,76.5,73.3,99,85,51,29.90,29.82,22,4,22,0.14
2013-8-28,94.3,82.2,74.7,80.8,76.7,70.5,99,85,48,29.88,29.81,17,5,17,0.00
2013-8-29,98.8,84.5,73.9,80.9,76.2,68.9,99,79,42,29.88,29.76,12,4,16,0.00
2013-8-30,99.3,83.2,76.3,80.9,76.3,72.0,99,82,45,29.84,29.73,13,3,14,0.00
2013-8-31,94.1,85.7,76.6,83.1,77.8,73.5,99,79,52,29.83,29.74,14,5,14,0.00
2013-9-1,96.4,85.3,76.1,81.9,78.2,74.4,99,81,53,29.83,29.76,17,5,20,0.02
2013-9-2,97.3,82.3,76.6,82.8,78.5,76.3,99,89,58,29.87,29.77,15,4,15,0.07
2013-9-3,96.4,85.0,75.7,81.5,78.4,75.5,99,82,57,29.88,29.77,11,3,12,0.02
2013-9-4,98.6,82.8,75.9,82.7,78.8,75.7,99,89,50,29.91,29.78,15,4,22,0.17
2013-9-5,102.4,87.3,76.5,84.9,78.7,70.7,99,79,38,29.93,29.82,11,5,13,0.07
2013-9-6,100.8,86.4,73.9,85.5,77.6,72.5,99,79,43,29.89,29.74,24,4,24,1.74
2013-9-7,98.2,82.6,0.0,82.5,78.0,73.3,99,83,49,29.84,29.74,23,5,23,0.59
2013-9-8,101.5,84.7,73.0,84.6,76.0,70.4,99,78,47,29.80,29.69,18,4,18,0.21
2013-9-9,96.3,84.5,76.6,80.8,77.2,71.9,99,81,47,29.85,29.74,16,6,16,0.01
2013-9-10,96.3,85.3,76.5,81.2,77.9,72.6,99,80,48,29.89,29.79,22,8,22,0.02
2013-9-11,92.5,83.3,75.9,81.3,77.6,73.8,99,84,61,29.88,29.81,21,8,21,0.05
2013-9-12,94.5,83.3,75.7,82.2,78.0,74.3,99,86,53,29.86,29.71,24,5,24,0.02
2013-9-13,95.4,83.1,73.4,82.1,75.8,73.2,99,81,51,29.75,29.64,10,3,13,0.01
2013-9-14,97.0,85.6,76.1,82.0,76.9,71.2,99,78,45,29.81,29.67,13,3,13,0.06
2013-9-15,96.3,82.6,77.5,83.7,77.8,73.7,99,87,55,30.03,29.77,28,6,28,0.00
2013-9-16,91.6,78.8,74.8,83.2,77.2,73.7,99,95,70,30.01,29.91,24,7,24,0.11
2013-9-17,93.0,78.7,74.5,83.2,77.1,74.2,99,95,65,29.99,29.86,24,6,24,0.17
2013-9-18,95.2,80.5,74.7,82.2,76.9,74.4,99,90,55,29.96,29.88,14,5,14,0.08
2013-9-19,91.8,82.7,73.9,81.7,77.8,73.7,99,86,65,29.98,29.89,17,6,17,0.00
2013-9-20,93.6,84.7,74.8,78.0,73.7,69.7,99,72,48,29.96,29.84,12,6,12,0.00
2013-9-21,93.6,83.8,73.2,78.4,74.9,71.7,99,76,52,29.89,29.73,10,4,10,0.00
2013-9-22,89.6,84.1,77.0,81.2,77.4,70.9,99,81,55,29.81,29.72,14,6,14,0.00
2013-9-23,82.6,78.5,75.4,80.6,76.7,73.5,94,94,93,29.92,29.79,15,4,15,3.72
2013-9-24,85.1,76.8,71.8,82.8,74.9,70.0,94,94,83,29.91,29.83,21,4,21,0.92
2013-9-25,82.9,76.9,73.2,79.0,75.0,71.4,94,94,85,29.89,29.75,14,4,14,0.09
2013-9-26,88.7,83.5,77.0,84.0,79.2,75.1,94,87,67,29.83,29.75,24,8,24,0.25
2013-9-27,90.0,81.8,73.2,76.4,71.5,63.1,94,73,44,29.89,29.80,14,5,14,0.00
2013-9-28,93.4,81.8,72.7,77.0,73.4,68.4,94,78,47,29.93,29.83,19,7,19,0.00
2013-9-29,93.0,83.6,73.4,75.3,70.8,65.1,94,68,42,29.93,29.82,12,6,12,0.00
2013-9-30,97.2,84.8,73.6,76.9,71.4,61.2,94,68,33,29.95,29.83,17,4,17,0.00
2013-10-1,96.3,84.6,74.5,78.2,72.9,66.4,94,71,41,29.98,29.88,13,6,13,0.00
2013-10-2,93.0,82.8,75.0,77.6,74.2,69.1,94,77,52,29.99,29.89,19,7,19,0.01
2013-10-3,95.2,80.9,74.8,79.8,75.2,73.0,94,84,50,30.00,29.90,14,5,14,0.93
2013-10-4,93.2,82.9,74.7,79.3,72.7,66.8,94,73,44,30.02,29.93,13,4,13,0.01
2013-10-5,95.9,84.1,73.9,75.7,71.2,59.2,94,68,33,30.00,29.87,10,4,10,0.00
2013-10-6,91.6,83.2,73.6,77.6,73.4,66.3,94,74,46,29.93,29.82,11,4,11,0.00
2013-10-7,86.7,81.5,76.1,81.7,77.9,74.3,94,89,75,29.83,29.75,21,8,25,0.13
2013-10-8,88.0,81.8,76.5,78.2,73.0,68.9,94,76,56,29.89,29.78,16,6,16,0.00
2013-10-9,89.4,79.9,74.5,76.1,73.1,70.7,94,81,56,29.97,29.87,13,6,13,0.00
2013-10-10,91.6,80.5,69.6,73.7,69.8,65.0,94,73,43,30.00,29.89,13,6,13,0.00
2013-10-11,95.2,81.5,70.3,73.4,65.8,52.2,94,65,25,29.99,29.88,10,4,10,0.00
2013-10-12,94.5,81.3,70.2,73.3,68.0,60.1,94,67,36,30.00,29.91,14,4,14,0.00
2013-10-13,91.4,81.6,69.6,74.3,66.5,58.8,94,63,35,30.02,29.91,12,5,12,0.00
2013-10-14,91.2,80.5,69.3,72.2,66.5,58.0,94,67,34,29.99,29.85,10,5,10,0.00
2013-10-15,94.1,80.8,70.0,74.7,68.0,57.8,94,69,31,29.94,29.82,12,6,12,0.00
2013-10-16,94.5,79.8,70.0,76.9,70.6,59.8,94,77,34,29.91,29.83,11,4,11,0.00
2013-10-17,92.5,82.2,71.8,76.1,70.8,61.8,94,71,40,29.93,29.83,11,3,11,0.00
2013-10-18,96.1,83.9,73.9,78.8,71.7,63.6,94,70,36,29.94,29.83,11,3,11,0.00
2013-10-19,92.1,83.9,75.7,79.3,76.5,72.9,94,80,58,29.91,29.81,13,5,13,0.00
2013-10-20,94.1,85.0,77.0,82.6,75.1,67.6,94,75,47,29.91,29.82,11,4,11,0.00
2013-10-21,91.9,84.0,75.2,80.8,75.5,71.7,94,77,57,29.95,29.85,12,4,12,0.00
2013-10-22,89.4,82.8,76.5,81.9,77.4,74.6,94,84,65,29.92,29.78,16,6,16,0.04
2013-10-23,85.6,78.9,69.6,78.6,69.9,55.1,94,75,54,29.93,29.77,16,5,16,0.04
2013-10-24,76.1,71.1,67.3,63.8,58.2,51.3,85,64,54,30.09,29.93,17,10,17,0.00
2013-10-25,81.9,72.6,62.4,64.3,61.7,56.1,94,71,46,30.17,30.07,17,7,17,0.00
2013-10-26,88.0,74.6,64.0,66.0,60.3,46.7,94,65,26,30.15,30.01,15,6,15,0.00
2013-10-27,86.2,74.8,63.7,65.3,60.2,51.5,94,64,32,30.07,29.98,13,6,13,0.00
2013-10-28,87.6,76.4,64.8,68.1,64.2,58.4,94,69,39,30.13,30.02,12,6,12,0.00
2013-10-29,90.5,78.1,67.5,68.9,66.8,63.0,94,71,41,30.16,30.03,14,8,14,0.00
2013-10-30,90.1,78.8,68.4,71.6,66.0,56.6,94,69,35,30.15,30.00,16,7,16,0.00
2013-10-31,91.6,79.8,69.1,74.7,69.8,63.5,94,74,41,30.06,29.92,14,5,14,0.00
2013-11-1,88.0,79.5,69.6,76.8,72.6,67.9,94,81,61,29.95,29.84,14,5,14,0.00
2013-11-2,84.6,76.2,70.2,78.2,70.9,64.1,94,84,55,29.92,29.78,19,6,19,0.04
2013-11-3,82.6,72.5,63.0,64.8,50.9,35.8,94,52,20,30.03,29.91,24,9,24,0.00
2013-11-4,83.8,73.4,60.4,65.8,60.9,52.1,89,67,41,30.08,29.99,22,10,22,0.00
2013-11-5,86.5,77.3,68.2,72.5,69.1,66.1,94,77,54,30.05,29.96,22,10,22,0.00
2013-11-6,90.5,80.1,71.4,72.0,69.5,65.6,94,72,46,30.03,29.93,14,6,14,0.00
2013-11-7,86.5,76.8,68.9,74.0,69.3,66.5,94,79,54,30.00,29.89,11,4,11,0.00
2013-11-8,85.3,76.0,66.9,71.4,68.5,65.1,94,79,57,30.03,29.93,21,10,21,0.00
2013-11-9,83.1,75.5,68.0,73.1,70.7,66.2,94,86,69,30.07,30.00,18,9,18,0.00
2013-11-10,88.2,78.5,70.9,73.7,69.7,66.1,94,76,53,30.09,29.99,14,7,14,0.00
2013-11-11,90.7,79.0,69.1,71.9,67.9,61.1,94,72,38,30.09,29.98,14,7,14,0.00
2013-11-12,88.2,77.3,69.1,71.6,67.8,4.8,94,74,48,30.06,29.93,100,5,100,0.00
2013-11-13,73.0,67.6,61.3,69.8,58.1,52.1,94,72,59,30.21,29.99,27,16,27,0.00
2013-11-14,81.0,70.7,60.3,61.6,57.4,51.6,89,65,40,30.21,30.08,21,10,21,0.00
2013-11-15,71.1,66.8,65.7,64.4,61.9,60.4,88,84,80,30.11,30.04,8,5,8,0.00
2013-11-16,80.6,73.8,69.6,75.5,69.1,66.7,94,86,65,30.04,29.97,14,6,14,0.12
2013-11-17,90.0,75.9,69.6,73.2,70.7,67.8,94,85,50,30.02,29.94,10,3,10,0.00
2013-11-18,89.8,79.7,68.7,75.1,71.2,66.5,94,77,52,29.99,29.88,10,4,10,0.00
2013-11-19,90.0,79.1,70.7,79.1,72.5,68.1,94,82,55,29.91,29.81,12,3,12,0.00
2013-11-20,93.2,77.5,68.5,74.7,70.1,63.2,94,81,39,30.02,29.89,12,5,12,0.00
2013-11-21,93.9,79.2,72.1,76.3,72.5,68.4,94,82,46,30.10,30.00,14,5,14,0.25
2013-11-22,87.4,79.1,71.8,75.1,70.1,65.6,94,76,50,30.11,30.01,16,7,16,0.00
2013-11-23,88.3,78.1,68.0,72.4,69.6,66.2,94,76,51,30.06,29.93,12,5,12,0.00
2013-11-24,81.3,72.5,66.2,70.2,66.9,63.5,94,83,62,30.13,29.96,30,10,30,0.00
2013-11-25,80.4,73.5,66.7,67.4,63.6,60.3,91,72,53,30.16,30.03,21,11,21,0.00
2013-11-26,84.0,75.7,70.5,75.9,72.1,68.4,94,89,69,30.00,29.76,17,10,17,0.14
2013-11-27,75.0,69.4,53.6,71.9,62.1,48.9,94,79,55,30.14,29.73,21,10,21,0.06
2013-11-28,72.0,56.3,40.8,55.7,47.7,38.8,93,75,48,30.27,30.15,16,8,16,0.00
2013-11-29,77.4,65.0,54.0,61.5,58.8,52.3,94,81,54,30.28,30.17,20,11,20,0.00
2013-11-30,80.1,67.7,56.7,68.3,63.3,55.0,94,86,63,30.23,30.10,21,8,21,0.00
2013-12-1,79.0,67.7,61.5,69.6,64.6,59.8,94,90,70,30.11,29.96,12,5,12,0.00
2013-12-2,78.8,68.4,61.3,67.0,64.2,58.5,94,87,51,29.94,29.81,10,3,10,0.00
2013-12-3,81.9,72.7,65.5,69.1,66.1,61.0,94,81,56,29.95,29.86,12,4,12,0.00
2013-12-4,84.4,75.2,64.8,73.1,67.8,62.4,94,79,50,30.04,29.94,11,3,11,0.00
2013-12-5,87.6,76.2,67.6,72.2,68.8,64.7,94,80,48,30.13,30.02,13,4,13,0.00
2013-12-6,89.6,76.5,68.4,74.8,70.6,65.7,94,83,54,30.14,30.03,14,4,14,0.01
2013-12-7,90.3,78.5,66.2,72.6,67.9,62.5,94,73,43,30.19,30.07,10,4,10,0.00
2013-12-8,90.3,78.1,68.4,73.1,68.7,63.4,94,75,44,30.17,30.04,14,5,14,0.00
2013-12-9,92.3,77.7,68.7,74.3,69.8,64.9,94,79,43,30.13,30.03,15,4,15,0.00
2013-12-10,88.7,77.2,67.1,75.2,69.7,65.3,94,79,53,30.13,30.03,10,4,10,0.00
2013-12-11,89.2,77.5,68.0,73.9,69.9,66.2,94,79,50,30.19,30.07,17,5,17,0.00
2013-12-12,74.5,68.8,59.2,69.2,62.4,42.5,94,81,44,30.23,30.11,21,8,21,0.00
2013-12-13,82.2,68.9,55.2,65.5,59.4,45.8,94,74,48,30.21,30.05,17,8,17,0.00
2013-12-14,86.9,76.0,65.7,73.4,70.4,63.9,94,84,59,30.06,29.92,16,6,16,0.00
2013-12-15,80.6,74.3,66.6,75.4,70.9,61.6,94,89,76,30.06,29.88,18,6,18,0.15
2013-12-16,73.2,64.9,56.7,61.6,55.0,48.1,93,72,46,30.17,30.06,12,6,12,0.00
2013-12-17,81.1,65.6,49.8,61.3,55.2,47.3,94,72,43,30.20,30.07,14,6,14,0.00
2013-12-18,75.2,61.7,55.4,54.4,49.4,38.6,94,69,28,30.23,30.15,11,6,11,0.00
2013-12-19,79.5,65.7,56.7,60.6,56.6,51.9,94,74,46,30.22,30.09,13,6,13,0.00
2013-12-20,85.5,74.8,62.2,70.0,66.6,60.5,94,77,55,30.14,30.02,18,7,18,0.00
2013-12-21,87.6,77.2,68.7,73.5,71.0,66.9,94,82,55,30.08,29.97,18,6,18,0.00
2013-12-22,85.3,76.0,70.3,74.3,71.0,67.9,94,86,66,30.11,30.01,14,5,14,0.00
2013-12-23,85.5,77.9,70.9,76.9,72.4,66.9,94,84,69,30.13,30.05,16,6,16,0.01
2013-12-24,72.9,68.1,57.6,70.7,61.7,41.2,94,81,45,30.18,30.07,23,8,23,0.00
2013-12-25,78.4,68.4,55.6,65.4,60.3,45.6,85,76,62,30.16,30.05,17,8,17,0.00
2013-12-26,85.5,73.6,64.4,69.4,66.0,60.1,94,78,53,30.14,30.00,15,6,15,0.00
2013-12-27,84.6,73.2,64.8,70.7,67.3,63.0,94,83,59,30.18,30.04,17,8,17,0.00
2013-12-28,84.0,75.1,67.1,72.5,70.0,65.3,94,85,63,30.14,29.97,18,7,18,0.00
2013-12-29,78.4,74.0,68.7,76.7,72.4,67.8,97,95,85,29.98,29.88,24,8,24,0.25
2013-12-30,77.7,69.3,63.7,67.2,65.1,62.8,97,87,66,30.14,29.98,13,6,13,0.00
2013-12-31,74.5,68.0,62.8,63.2,57.7,49.3,97,71,46,30.25,30.10,19,9,19,0.00
2014-1-1,85.1,73.5,63.5,76.1,68.7,60.3,97,86,64,30.17,30.00,14,5,14,0.00
2014-1-2,81.5,74.1,67.3,76.1,70.9,63.6,97,90,81,30.00,29.84,20,8,20,0.08